Weather History for Stanley, ID

Change the Weather History Date:

Sunday, February 23, 2014

  Actual Average Record
Temperature  
Mean Temperature 30 °F 21 °F  
Max Temperature 37 °F 36 °F 52 °F (1921)
Min Temperature 22 °F 6 °F -29 °F (1975)
Degree Days  
Heating Degree Days 35 44  
Month to date heating degree days 1061 1089  
Since 1 July heating degree days 7001 7318  
Cooling Degree Days 0 0  
Month to date cooling degree days 0 0  
Year to date cooling degree days 0 0  
Moisture  
Dew Point 22 °F    
Average Humidity 74    
Maximum Humidity 96    
Minimum Humidity 52    
Precipitation  
Precipitation 0.02 in 0.06 in 0.35 in (2000)
Month to date precipitation 4.46 1.46  
Year to date precipitation 6.42 2.98  
Sea Level Pressure  
Sea Level Pressure 29.92 in    
Wind  
Wind Speed 4 mph (SE)    
Max Wind Speed 14 mph    
Max Gust Speed 19 mph    
T = Trace of Precipitation, MM = Missing Value Source: NWS Daily Summary

Daily Weather History Graph

Daily Weather History Graph

Search for Another Location

Airport:

Trip Planner

Search our weather history database for the weather conditions in past years. The results will help you decide how hot, cold, wet, or windy it might be!

Date:

Astronomy

Feb. 23, 2014 Rise Set
Actual Time 7:26 AM MST 6:20 PM MST
Civil Twilight 6:57 AM MST 6:49 PM MST
Nautical Twilight 6:23 AM MST 7:23 PM MST
Astronomical Twilight 5:50 AM MST 7:56 PM MST
Moon 2:35 AM MST (2/23) 12:19 PM MST (2/23)
Length of Visible Light 11h 52m
Length of Day
10h 53m
Last Quarter, 38% of the Moon is Illuminated
Feb 23
Last Quarter
Mar 1
New
Mar 8
First Quarter
Mar 16
Full
Mar 23
Last Quarter

Hourly Weather History & Observations

Time (MST) Temp. Windchill Dew Point Humidity Pressure Visibility Wind Dir Wind Speed Gust Speed Precip Events Conditions
12:51 AM 23.0 °F - 21.0 °F 92% 29.90 in - Calm Calm - 0.01 in   Unknown
1:51 AM 24.1 °F 19.7 °F 21.9 °F 91% 29.90 in - Variable 3.5 mph - 0.01 in   Unknown
2:51 AM 24.1 °F 19.7 °F 21.9 °F 91% 29.88 in - SSE 3.5 mph - N/A   Unknown
3:51 AM 26.1 °F 20.5 °F 21.9 °F 84% 29.91 in - Variable 4.6 mph - N/A   Unknown
4:51 AM 28.0 °F - 21.9 °F 78% 29.89 in - Calm Calm - N/A   Unknown
5:51 AM 26.1 °F 19.4 °F 21.9 °F 84% 29.91 in - South 5.8 mph - N/A   Unknown
6:51 AM 25.0 °F 19.3 °F 21.9 °F 88% 29.93 in - SSE 4.6 mph - N/A   Unknown
7:51 AM 24.1 °F 18.2 °F 21.9 °F 91% 29.96 in - Variable 4.6 mph - N/A   Unknown
8:51 AM 28.0 °F - 24.1 °F 85% 29.96 in - Calm Calm - N/A   Unknown
9:51 AM 28.0 °F 22.8 °F 24.1 °F 85% 29.98 in - SE 4.6 mph - N/A   Unknown
10:51 AM 34.0 °F 28.8 °F 21.0 °F 59% 29.95 in - Variable 5.8 mph - N/A   Unknown
11:51 AM 33.1 °F 27.7 °F 24.1 °F 70% 29.94 in - SE 5.8 mph - N/A   Unknown
12:51 PM 35.1 °F - 21.9 °F 59% 29.94 in - Calm Calm - N/A   Unknown
1:51 PM 35.1 °F 32.2 °F 21.0 °F 57% 29.92 in - Variable 3.5 mph - N/A   Unknown
2:51 PM 36.0 °F 33.3 °F 19.9 °F 52% 29.91 in - Variable 3.5 mph - N/A   Unknown
3:51 PM 35.1 °F - 21.0 °F 57% 29.89 in - Calm Calm - N/A   Unknown
4:51 PM 34.0 °F - 19.9 °F 56% 29.89 in - Calm Calm - N/A   Unknown
5:51 PM 32.0 °F - 19.9 °F 61% 29.90 in - Calm Calm - N/A   Unknown
6:51 PM 27.0 °F 18.7 °F 19.9 °F 75% 29.93 in - South 8.1 mph - N/A   Unknown
7:51 PM 30.0 °F 25.2 °F 19.9 °F 66% 29.94 in - SSE 4.6 mph - N/A   Unknown
8:51 PM 33.1 °F 23.9 °F 19.9 °F 59% 29.90 in - ENE 12.7 mph - N/A   Unknown
9:51 PM 33.1 °F 25.5 °F 23.0 °F 66% 29.91 in - SSE 9.2 mph 18.4 mph N/A   Unknown
10:51 PM 32.0 °F 22.5 °F 25.0 °F 75% 29.91 in - East 12.7 mph 17.3 mph 0.01 in   Unknown
11:51 PM 33.1 °F 30.0 °F 25.0 °F 72% 29.90 in - ENE 3.5 mph 19.6 mph N/A   Unknown